TimePDT,TemperatureF,Dew PointF,Humidity,Sea Level PressureIn,VisibilityMPH,Wind Direction,Wind SpeedMPH,Gust SpeedMPH,PrecipitationIn,Events,Conditions,WindDirDegrees,DateUTC
12:58 AM,31.3,31.1,99,30.52,10.0,South,2.3,-,N/A,,Clear,170,2013-03-10 08:58:00
1:58 AM,30.4,30.0,99,30.51,10.0,South,3.5,-,N/A,,Clear,190,2013-03-10 09:58:00
3:58 AM,32.2,31.5,97,30.50,10.0,Calm,Calm,-,N/A,,Mostly Cloudy,0,2013-03-10 10:58:00
4:58 AM,33.4,33.3,99,30.51,10.0,Calm,Calm,-,N/A,,Overcast,0,2013-03-10 11:58:00
5:58 AM,34.7,34.5,99,30.51,10.0,ENE,1.2,-,N/A,,Mostly Cloudy,60,2013-03-10 12:58:00
6:06 AM,35.6,35.6,100,30.49,10.0,SE,3.5,-,N/A,Rain,Light Rain,130,2013-03-10 13:06:00
6:16 AM,35.6,35.6,100,30.49,10.0,SSE,3.5,-,N/A,,Scattered Clouds,160,2013-03-10 13:16:00
6:22 AM,35.6,35.6,100,30.49,10.0,SW,3.5,-,N/A,Rain,Light Rain,220,2013-03-10 13:22:00
6:27 AM,35.6,35.6,100,30.49,10.0,SW,3.5,-,N/A,Rain,Light Rain,220,2013-03-10 13:27:00
6:47 AM,37.4,35.6,93,30.49,10.0,North,-9999.0,-,N/A,Rain,Light Rain,0,2013-03-10 13:47:00
6:52 AM,37.4,35.6,93,30.49,10.0,Calm,Calm,-,N/A,Rain,Light Rain,0,2013-03-10 13:52:00
6:58 AM,36.7,36.3,99,30.50,10.0,Calm,Calm,-,0.00,Rain,Light Rain,0,2013-03-10 13:58:00
7:58 AM,36.7,36.5,99,30.50,10.0,SSE,2.3,-,0.00,Rain,Light Rain,160,2013-03-10 14:58:00
7:59 AM,37.4,37.4,100,30.48,10.0,SSE,2.3,-,N/A,,Overcast,160,2013-03-10 14:59:00
8:58 AM,38.5,38.3,99,30.49,10.0,South,3.5,-,0.00,,Overcast,170,2013-03-10 15:58:00
9:40 AM,39.2,39.2,100,30.47,10.0,ESE,2.3,-,N/A,,Overcast,110,2013-03-10 16:40:00
9:58 AM,40.1,39.6,98,30.49,10.0,Calm,Calm,-,0.00,,Light Drizzle,0,2013-03-10 16:58:00
10:17 AM,41.0,39.2,93,30.47,10.0,Variable,1.2,-,N/A,Rain,Light Rain,0,2013-03-10 17:17:00
10:32 AM,41.0,39.2,93,30.47,10.0,Calm,Calm,-,N/A,Rain,Light Rain,0,2013-03-10 17:32:00
10:37 AM,41.0,39.2,93,30.47,10.0,Calm,Calm,-,N/A,Rain,Light Rain,0,2013-03-10 17:37:00
10:58 AM,41.7,40.1,94,30.49,10.0,Calm,Calm,-,0.01,Rain,Light Rain,0,2013-03-10 17:58:00
11:53 AM,42.8,39.2,87,30.47,10.0,Calm,Calm,-,N/A,Rain,Light Rain,0,2013-03-10 18:53:00
11:58 AM,43.0,39.7,88,30.49,10.0,NNW,2.3,-,0.00,Rain,Light Rain,340,2013-03-10 18:58:00
12:18 PM,42.8,39.2,87,30.47,10.0,North,1.2,-,N/A,Rain,Light Rain,10,2013-03-10 19:18:00
12:28 PM,42.8,41.0,93,30.46,10.0,Calm,Calm,-,N/A,,Overcast,0,2013-03-10 19:28:00
12:31 PM,42.8,41.0,93,30.46,10.0,Calm,Calm,-,N/A,Rain,Light Rain,0,2013-03-10 19:31:00
12:41 PM,42.8,41.0,93,30.46,10.0,Variable,1.2,-,N/A,Rain,Light Rain,0,2013-03-10 19:41:00
12:58 PM,43.3,40.5,90,30.48,10.0,Variable,1.2,-,0.01,Rain,Light Rain,0,2013-03-10 19:58:00
1:18 PM,42.8,41.0,93,30.46,10.0,ENE,2.3,-,N/A,Rain,Light Rain,60,2013-03-10 20:18:00
1:43 PM,42.8,41.0,93,30.46,10.0,SE,2.3,-,N/A,Rain,Light Rain,130,2013-03-10 20:43:00
1:58 PM,43.5,41.4,92,30.48,10.0,Variable,2.3,-,0.01,,Light Drizzle,0,2013-03-10 20:58:00
2:03 PM,42.8,41.0,93,30.45,10.0,South,2.3,-,N/A,,Light Drizzle,180,2013-03-10 21:03:00
2:04 PM,44.6,41.0,87,30.45,10.0,South,2.3,-,N/A,,Overcast,170,2013-03-10 21:04:00
2:44 PM,44.6,42.8,93,30.44,10.0,SE,2.3,-,N/A,,Overcast,130,2013-03-10 21:44:00
2:54 PM,44.6,42.8,93,30.44,10.0,SSE,2.3,-,N/A,,Overcast,150,2013-03-10 21:54:00
2:58 PM,44.2,42.4,93,30.47,10.0,SSE,2.3,-,0.00,,Overcast,150,2013-03-10 21:58:00
3:03 PM,44.6,42.8,93,30.45,10.0,SE,2.3,-,N/A,,Overcast,130,2013-03-10 22:03:00
3:13 PM,44.6,42.8,93,30.45,10.0,Calm,Calm,-,N/A,,Overcast,0,2013-03-10 22:13:00
3:43 PM,44.6,42.8,93,30.45,10.0,ESE,2.3,-,N/A,,Overcast,120,2013-03-10 22:43:00
3:58 PM,44.6,42.1,91,30.47,10.0,SE,3.5,-,N/A,,Overcast,140,2013-03-10 22:58:00
4:58 PM,44.4,43.0,95,30.46,10.0,ESE,1.2,-,N/A,,Overcast,120,2013-03-10 23:58:00
5:48 PM,44.6,42.8,93,30.44,10.0,Calm,Calm,-,N/A,,Overcast,0,2013-03-11 00:48:00
5:58 PM,44.4,43.0,95,30.46,10.0,Calm,Calm,-,N/A,,Overcast,0,2013-03-11 00:58:00
6:58 PM,44.4,43.3,96,30.46,9.0,Calm,Calm,-,N/A,,Overcast,0,2013-03-11 01:58:00
7:15 PM,44.6,42.8,93,30.44,6.0,Calm,Calm,-,N/A,,Light Drizzle,0,2013-03-11 02:15:00
7:20 PM,44.6,42.8,93,30.44,7.0,East,1.2,-,N/A,,Light Drizzle,90,2013-03-11 02:20:00
7:29 PM,44.6,42.8,93,30.44,7.0,Calm,Calm,-,N/A,,Overcast,0,2013-03-11 02:29:00
7:34 PM,44.6,42.8,93,30.44,7.0,Calm,Calm,-,N/A,,Overcast,0,2013-03-11 02:34:00
7:58 PM,43.9,43.5,99,30.46,6.0,Calm,Calm,-,0.00,,Overcast,0,2013-03-11 02:58:00
8:03 PM,44.6,42.8,93,30.44,5.0,South,1.2,-,N/A,,Overcast,170,2013-03-11 03:03:00
8:05 PM,42.8,42.8,100,30.44,5.0,South,2.3,-,N/A,Rain,Light Rain,180,2013-03-11 03:05:00
8:20 PM,42.8,42.8,100,30.44,4.0,South,2.3,-,N/A,Rain,Light Rain,180,2013-03-11 03:20:00
8:32 PM,42.8,42.8,100,30.43,5.0,Calm,Calm,-,N/A,,Overcast,0,2013-03-11 03:32:00
8:37 PM,42.8,42.8,100,30.44,5.0,Calm,Calm,-,N/A,,Overcast,0,2013-03-11 03:37:00
8:40 PM,42.8,42.8,100,30.44,6.0,Calm,Calm,-,N/A,,Light Drizzle,0,2013-03-11 03:40:00
8:55 PM,42.8,42.8,100,30.44,5.0,Calm,Calm,-,N/A,Rain,Light Rain,0,2013-03-11 03:55:00
8:58 PM,43.2,43.0,99,30.46,4.0,Calm,Calm,-,0.02,Rain,Light Rain,0,2013-03-11 03:58:00
9:07 PM,42.8,42.8,100,30.44,4.0,Calm,Calm,-,N/A,,Overcast,0,2013-03-11 04:07:00
9:27 PM,42.8,42.8,100,30.44,5.0,Calm,Calm,-,N/A,,Overcast,0,2013-03-11 04:27:00
9:42 PM,42.8,42.8,100,30.43,4.0,Calm,Calm,-,N/A,,Overcast,0,2013-03-11 04:42:00
9:58 PM,43.0,42.6,99,30.45,5.0,ESE,1.2,-,0.00,,Overcast,110,2013-03-11 04:58:00
10:08 PM,42.8,42.8,100,30.43,5.0,SSE,1.2,-,N/A,,Overcast,160,2013-03-11 05:08:00
10:28 PM,42.8,42.8,100,30.44,2.5,Calm,Calm,-,N/A,,Overcast,0,2013-03-11 05:28:00
10:33 PM,42.8,42.8,100,30.44,3.0,Calm,Calm,-,N/A,,Overcast,0,2013-03-11 05:33:00
10:48 PM,42.8,42.8,100,30.44,5.0,SSW,2.3,-,N/A,,Overcast,210,2013-03-11 05:48:00
10:53 PM,42.8,42.8,100,30.43,5.0,SSW,2.3,-,N/A,,Overcast,210,2013-03-11 05:53:00
10:58 PM,43.0,42.8,99,30.46,4.0,SSW,1.2,-,N/A,,Overcast,200,2013-03-11 05:58:00
11:23 PM,42.8,42.8,100,30.43,5.0,Calm,Calm,-,N/A,,Overcast,0,2013-03-11 06:23:00
11:38 PM,42.8,42.8,100,30.43,5.0,Calm,Calm,-,N/A,,Overcast,0,2013-03-11 06:38:00
11:58 PM,42.8,42.4,99,30.46,5.0,Calm,Calm,-,N/A,,Overcast,0,2013-03-11 06:58:00
12:03 AM,42.8,42.8,100,30.43,5.0,Calm,Calm,-,N/A,,Overcast,0,2013-03-11 07:03:00
12:18 AM,42.8,42.8,100,30.44,5.0,Calm,Calm,-,N/A,,Overcast,0,2013-03-11 07:18:00
12:23 AM,42.8,42.8,100,30.44,4.0,Calm,Calm,-,N/A,,Overcast,0,2013-03-11 07:23:00
12:58 AM,43.0,42.8,99,30.46,4.0,Calm,Calm,-,N/A,,Overcast,0,2013-03-11 07:58:00